#timestamp,LO_Frequency,Hit 
1505916015.4,286046999.3,N
1505916035.3,286047000.1,N
1505916055.1,286047001.5,N
1505916075.8,286047002.4,N
1505916095.7,286046998.5,N
1505916115.5,286046999.2,N
1505916135.3,286046995.2,N
1505916155.2,286046995.5,N
1505916175.9,286046993.7,N
1505916195.7,286046994.3,N
1505916215.6,286046995.5,N
1505916235.4,286046995.1,N
1505916255.2,286046999.2,N
1505916275.1,286047000.1,N
1505916276.0,286047000.1,N
1505916295.8,286047001.6,N
1505916315.6,286047004.1,N
1505916335.4,286047002.3,N
1505916355.3,286046999.9,N
1505916375.1,286046998.5,N
1505916395.8,286046998.9,N
1505916415.7,286047004.4,N
1505916435.5,286047001.6,N
1505916455.3,286046999.5,N
1505916475.2,286046998.8,N
1505916495.9,286047002.5,N
1505916515.7,286047003.7,N
1505916535.6,286047001.9,N
1505916555.4,286047005.9,N
1505916575.2,286047005.1,N
1505916595.1,286047004.0,N
1505916596.0,286047004.0,N
1505916615.8,286047006.0,N
1505916635.6,286047004.1,N
1505916655.5,286047003.2,N
1505916675.3,286047005.2,N
1505916695.1,286047005.9,N
1505916715.8,286047005.8,N
1505916735.7,286047003.5,N
1505916755.5,286047003.5,N
1505916775.3,286047007.4,N
1505916795.2,286047008.7,P
1505916815.0,286047005.5,N
1505916815.9,286047005.5,N
1505916835.7,286047006.0,N
1505916855.6,286047004.6,N
1505916875.4,286047005.5,N
1505916895.2,286047004.5,N
1505916915.1,286047004.0,N
1505916916.0,286047004.0,N
1505916935.8,286047000.4,N
1505916955.6,286047000.9,N
1505916975.5,286047001.2,N
1505916995.3,286047002.9,N
1505917015.1,286047005.9,N
1505917035.9,286047003.1,N
1505917055.7,286047004.9,N
1505917075.5,286047006.6,P
1505917095.4,286047005.4,P
1505917115.2,286047004.4,P
1505917135.0,286047001.4,N
1505917135.9,286047001.4,N
1505917155.8,286047001.8,N
1505917175.6,286047002.0,N
1505917195.4,286046995.9,N
1505917215.3,286046994.2,N
1505917235.1,286046997.5,N
1505917236.0,286046997.5,N
1505917255.8,286046996.1,N
1505917275.7,286046993.5,N
1505917295.5,286046996.4,N
1505917315.3,286046999.2,N
1505917335.1,286046996.1,N
1505917355.9,286046994.0,N
1505917375.7,286046996.4,N
1505917395.5,286046999.4,N
1505917415.4,286046995.4,N
1505917435.2,286046994.6,N
1505917455.0,286046994.9,N
1505917455.9,286046994.9,N
1505917475.8,286046998.1,N
1505917495.6,286046998.3,N
1505917515.4,286046998.0,N
1505917535.3,286046995.0,N
1505917555.1,286046996.8,N
1505917556.0,286046996.8,N
1505917575.8,286046997.3,N
1505917595.7,286046993.8,N
1505917615.5,286046990.3,P
1505917635.3,286046990.8,N
1505917655.2,286046992.7,N
1505917675.9,286046991.9,N
1505917695.7,286046992.1,P
1505917715.6,286046999.0,P
1505917735.4,286046999.2,N
1505917755.2,286046995.8,N
1505917775.1,286046994.4,N
1505917776.0,286046994.4,N
1505917795.8,286046992.1,P
1505917815.6,286046997.0,N
1505917835.5,286046997.3,N
1505917855.3,286047000.5,N
1505917875.1,286047000.2,N
1505917895.9,286046999.5,N
1505917915.7,286046996.9,N
1505917935.5,286046997.1,N
1505917955.3,286046997.5,N
1505917975.2,286046996.2,N
1505917995.0,286046993.5,N
1505917995.9,286046993.5,N
1505918015.7,286046993.3,N
1505918035.6,286046993.4,N
1505918055.4,286046994.5,N
1505918075.2,286046994.8,N
1505918095.1,286046994.5,N
1505918096.0,286046994.5,N
1505918115.8,286046994.6,N
1505918135.6,286046998.4,N
1505918155.5,286046998.4,N
1505918175.3,286047000.5,N
1505918195.1,286046997.9,N
1505918215.9,286046995.2,N
1505918235.7,286046996.0,N
1505918255.5,286046996.3,N
1505918275.3,286046996.5,N
1505918295.2,286047000.1,N
1505918315.0,286047000.0,N
1505918315.9,286047000.0,N
1505918335.7,286047004.0,N
1505918355.6,286047005.9,N
1505918375.4,286047003.0,N
1505918395.2,286047005.7,N
1505918415.1,286047003.7,N
1505918416.0,286047003.7,N
1505918435.8,286047001.0,N
1505918455.6,286047000.6,N
1505918475.5,286046996.8,N
1505918495.3,286046998.8,N
1505918515.1,286046996.3,N
1505918535.9,286046996.1,N
1505918555.7,286046992.2,N
1505918575.5,286046995.3,N
1505918595.4,286047000.3,N
1505918615.2,286047000.2,N
1505918635.0,286047002.7,N
1505918635.9,286047002.7,N
1505918655.7,286046999.8,N
1505918675.6,286047001.6,N
1505918695.4,286047006.0,N
1505918715.2,286047006.0,N
1505918735.1,286046998.3,N
1505918736.0,286046998.3,N
1505918755.8,286046998.6,N
1505918775.6,286046996.7,N
1505918795.5,286046999.5,N
1505918815.3,286046993.4,N
1505918835.1,286046996.3,N
1505918855.9,286046998.1,N
1505918875.7,286047002.7,N
1505918895.5,286046998.4,N
1505918915.4,286047000.7,N
1505918935.2,286047001.2,N
1505918955.0,286047002.3,N
1505918955.9,286047002.3,N
1505918975.8,286046999.9,N
1505918995.6,286046999.2,N
1505919015.4,286046995.5,N
1505919035.2,286046997.3,N
1505919055.1,286046997.1,N
1505919056.0,286046997.1,N
1505919075.8,286046995.1,N
1505919095.6,286046997.8,N
1505919115.5,286047000.2,N
1505919135.3,286047001.4,N
1505919155.1,286047004.4,N
1505919175.9,286047002.1,N
1505919195.7,286047003.5,N
1505919215.5,286047002.4,N
1505919235.4,286047001.6,N
1505919255.2,286047005.6,N
1505919275.0,286046999.8,N
1505919275.9,286046999.8,N
1505919295.8,286047001.1,N
1505919315.6,286047000.4,N
1505919335.4,286047000.8,N
1505919355.3,286047002.5,N
1505919375.1,286047001.6,N
1505919376.0,286047001.6,N
1505919395.5,286047001.8,N
1505919415.4,286047004.0,N
1505919435.2,286047001.4,N
1505919455.0,286046999.7,N
1505919455.9,286046999.7,N
1505919475.8,286047002.0,N
1505919495.6,286047002.2,N
1505919515.4,286047000.8,N
1505919535.3,286046997.1,N
1505919555.1,286046990.3,P
1505919556.0,286046990.3,N
1505919575.8,286046992.5,N
1505919595.7,286046993.5,N
